Home   Weather   Ilio   Past weeks

Flag for Greece Past Weather in Ilio, Greece — Yesterday and Last 2 Weeks

Now
75 °F

Scattered clouds.


Feels Like: 77 °F
Forecast: 60 / 75 °F
Wind: 9 mph from North

Location: Elefsis Airport

Current Time: Sep 27, 2016 at 6:34:50 PM

Latest Report: Sep 27, 2016 at 5:50 PM


Visibility: N/A

Pressure: 30.15 "Hg

Humidity: 34%

Dew Point: 45 °F

Location of IlioLocation

Past Weather in Ilio — Graph

°F

Ilio Temperature Yesterday

Maximum temperature yesterday: 79 °F (at 1:50 PM)
Minimum temperature yesterday: 59 °F (at 2:20 AM)
Average temperature yesterday: 69 °F

High & Low Weather Summary for the Past Weeks

 TemperatureHumidityPressure
High95 °F (Sep 18, 1:50 PM)88% (Sep 22, 1:20 AM)30.27 "Hg (Sep 22, 1:20 AM)
Low59 °F (Sep 23, 11:50 PM)18% (Sep 15, 3:50 PM)29.71 "Hg (Sep 20, 4:20 AM)
Average74 °F47%29.98 "Hg
* Reported Sep 12 5:20 PM — Sep 27 5:20 PM, Ilio, Weather by CustomWeather, © 2016

Note: Actual official high and low records may vary slightly from our data, if they occured in-between our weather recording intervals... More about our weather records

Advertising

Ilio Weather History for the Previous 24 Hours

Scroll right to see more
 ConditionsComfort  
Time TempWeatherWind HumidityBarometerVisibility
5:20 PM
Tue, Sep 27
75 °FScattered clouds.8 mph34%30.15 "HgN/A
4:50 PM75 °FScattered clouds.8 mph34%30.15 "HgN/A
4:20 PM75 °FBroken clouds.10 mph34%30.15 "HgN/A
3:50 PM77 °FBroken clouds.8 mph32%30.15 "HgN/A
3:20 PM75 °FScattered clouds.7 mph34%30.15 "HgN/A
2:50 PM75 °FScattered clouds.8 mph34%30.15 "HgN/A
2:20 PM75 °FScattered clouds.8 mph34%30.15 "HgN/A
1:50 PM75 °FScattered clouds.9 mph34%30.15 "HgN/A
1:20 PM75 °FScattered clouds.7 mph34%30.15 "HgN/A
12:50 PM75 °FScattered clouds.6 mph34%30.15 "HgN/A
12:20 PM73 °FScattered clouds.7 mph38%30.15 "HgN/A
11:50 AM72 °FBroken clouds.8 mph41%30.15 "HgN/A
11:20 AM72 °FBroken clouds.6 mph47%30.15 "HgN/A
10:50 AM70 °FScattered clouds.7 mph50%30.15 "HgN/A
10:20 AM70 °FScattered clouds.6 mph50%30.15 "HgN/A
9:50 AM70 °FBroken clouds.5 mph50%30.15 "HgN/A
9:20 AM68 °FPartly sunny.5 mph53%30.15 "HgN/A
8:50 AM68 °FPartly sunny.6 mph53%30.12 "HgN/A
8:20 AM66 °FScattered clouds.5 mph56%30.12 "HgN/A
7:50 AM64 °FScattered clouds.6 mph60%30.12 "HgN/A
7:20 AM59 °FPassing clouds.3 mph63%30.12 "HgN/A
6:50 AM61 °FPassing clouds.3 mph63%30.09 "HgN/A
6:20 AM63 °FPassing clouds.5 mph59%30.09 "HgN/A
5:50 AM61 °FPassing clouds.6 mph59%30.09 "HgN/A
5:20 AM63 °FPassing clouds.3 mph56%30.09 "HgN/A
4:50 AM63 °FPassing clouds.3 mph56%30.09 "HgN/A
4:20 AM61 °FPassing clouds.3 mph59%30.09 "HgN/A
3:50 AM63 °FPassing clouds.5 mph56%30.09 "HgN/A
3:20 AM63 °FPassing clouds.6 mph56%30.09 "HgN/A
2:50 AM64 °FPassing clouds.9 mph52%30.09 "HgN/A
2:20 AM64 °FPassing clouds.7 mph49%30.09 "HgN/A
1:50 AM66 °FPassing clouds.9 mph43%30.09 "HgN/A
1:20 AM64 °FPassing clouds.8 mph49%30.09 "HgN/A
12:50 AM66 °FPassing clouds.7 mph49%30.09 "HgN/A
12:20 AM64 °FPassing clouds.6 mph52%30.09 "HgN/A
11:50 PM
Mon, Sep 26
66 °FPassing clouds.3 mph49%30.09 "HgN/A
11:20 PM64 °FPassing clouds.No wind56%30.09 "HgN/A
10:50 PM64 °FPassing clouds.No wind52%30.09 "HgN/A
10:20 PM66 °FPassing clouds.3 mph49%30.09 "HgN/A
9:50 PM66 °FClear.No wind49%30.09 "Hg10 mi
9:20 PM68 °FPassing clouds.5 mph49%30.07 "HgN/A
8:50 PM68 °FPassing clouds.6 mph46%30.07 "HgN/A
8:20 PM70 °FPassing clouds.6 mph43%30.04 "HgN/A
7:50 PM70 °FPassing clouds.6 mph43%30.04 "HgN/A
7:20 PM72 °FPassing clouds.7 mph41%30.04 "HgN/A
6:50 PM75 °FPassing clouds.7 mph31%30.01 "HgN/A
6:20 PM75 °FScattered clouds.8 mph31%30.01 "HgN/A
Weather by CustomWeather, © 2016

See weather overviewHow to use our weather pages